FW9486 Weather Reports


time (UTC)temp
C
wind
direction
speed
KPH
gust
KPH
rain 1hr
cm
rain 24hr
cm
rain mn
cm
humidity
%
barometer
mb
20260503050039 12 30 0.0 1.6 0.00 0.00 0.00 51 1012.0
20260503044541 12 0 0.0 1.6 0.00 0.00 0.00 48 1012.1
20260503043036 12 0 0.0 1.6 0.00 0.00 0.00 49 1012.0
20260503041539 13 40 0.0 3.2 0.00 0.00 0.00 45 1011.9
20260503040040 14 0 0.0 1.6 0.00 0.00 0.00 42 1011.8
20260503034536 15 0 0.0 0.0 0.00 0.00 0.00 40 1011.6
20260503033035 16 0 0.0 1.6 0.00 0.00 0.00 37 1011.3
20260503031541 16 0 0.0 1.6 0.00 0.00 0.00 34 1011.1
20260503030035 17 347 0.0 3.2 0.00 0.00 0.00 33 1011.0
20260503024538 17 30 0.0 1.6 0.00 0.00 0.00 31 1011.0
20260503023038 18 0 0.0 1.6 0.00 0.00 0.00 29 1011.1
20260503021539 19 0 0.0 3.2 0.00 0.00 0.00 29 1011.0
20260503020038 20 311 3.2 6.4 0.00 0.00 0.00 24 1010.9
20260503014537 20 278 3.2 4.8 0.00 0.00 0.00 25 1010.9
20260503013043 20 300 3.2 8.0 0.00 0.00 0.00 25 1011.0
20260503011539 21 323 3.2 11.3 0.00 0.00 0.00 22 1011.0
20260503010038 21 319 1.6 8.0 0.00 0.00 0.00 22 1011.2
20260503004536 21 223 3.2 12.9 0.00 0.00 0.00 20 1011.2
20260503003035 22 307 6.4 12.9 0.00 0.00 0.00 18 1011.1
20260503001538 22 298 3.2 8.0 0.00 0.00 0.00 18 1011.0
20260503000054 22 238 3.2 11.3 0.00 0.00 0.00 20 1011.1
20260502234536 22 143 1.6 11.3 0.00 0.00 0.00 21 1011.2
20260502233035 23 181 1.6 9.7 0.00 0.00 0.00 20 1011.3
20260502231542 23 0 1.6 6.4 0.00 0.00 0.00 20 1011.3
20260502230036 22 42 1.6 4.8 0.00 0.00 0.00 20 1011.6
20260502224538 22 23 3.2 8.0 0.00 0.00 0.00 20 1011.8
20260502223040 22 270 3.2 9.7 0.00 0.00 0.00 21 1011.9
20260502221537 22 322 4.8 11.3 0.00 0.00 0.00 21 1012.2
20260502220043 22 304 4.8 9.7 0.00 0.00 0.00 20 1012.3
20260502214534 22 203 3.2 12.9 0.00 0.00 0.00 20 1012.4
20260502213035 22 218 9.7 16.1 0.00 0.00 0.00 20 1012.5
20260502211535 22 0 4.8 12.9 0.00 0.00 0.00 19 1012.5
20260502210033 22 309 6.4 12.9 0.00 0.00 0.00 20 1012.8
20260502204537 22 153 1.6 4.8 0.00 0.00 0.00 20 1012.9
20260502203036 22 307 1.6 8.0 0.00 0.00 0.00 21 1013.1
20260502201536 21 0 3.2 8.0 0.00 0.00 0.00 26 1013.2
20260502200035 21 120 3.2 9.7 0.00 0.00 0.00 26 1013.3
20260502194537 21 300 3.2 6.4 0.00 0.00 0.00 28 1013.3
20260502193039 21 136 3.2 6.4 0.00 0.00 0.00 29 1013.4
20260502191543 20 110 1.6 8.0 0.00 0.00 0.00 32 1013.5
20260502190037 20 149 1.6 9.7 0.00 0.00 0.00 28 1013.7
20260502184542 19 0 3.2 6.4 0.00 0.00 0.00 24 1013.9
20260502183034 18 96 3.2 6.4 0.00 0.00 0.00 41 1014.3
20260502181532 17 135 1.6 6.4 0.00 0.00 0.00 49 1014.2
20260502163042 11 127 1.6 4.8 0.00 0.00 0.00 71 1015.3
20260502161556 9 127 1.6 3.2 0.00 0.00 0.00 72 1015.5
20260502151535 6 110 1.6 3.2 0.00 0.00 0.00 78 1015.6
20260502123107 1 0 0.0 1.6 0.00 0.00 0.00 92 1015.5
20260502121535 1 0 0.0 0.0 0.00 0.00 0.00 91 1015.5
20260502114537 1 0 0.0 1.6 0.00 0.00 0.00 89 1015.6
20260502113036 2 0 0.0 0.0 0.00 0.00 0.00 87 1015.5
20260502111554 2 0 0.0 0.0 0.00 0.00 0.00 88 1015.5
20260502110045 2 0 0.0 0.0 0.00 0.00 0.00 89 1015.6
20260502104534 2 0 0.0 0.0 0.00 0.00 0.00 85 1015.5
20260502103036 2 0 0.0 0.0 0.00 0.00 0.00 86 1015.4
20260502101540 2 0 0.0 0.0 0.00 0.00 0.00 86 1015.3
20260502070036 6 0 0.0 0.0 0.00 0.00 0.00 69 1015.3
20260502064535 6 0 0.0 1.6 0.00 0.00 0.00 69 1015.3
20260502063051 7 0 0.0 1.6 0.00 0.00 0.00 67 1015.2
20260502061536 7 0 0.0 0.0 0.00 0.00 0.00 66 1015.2
20260502060040 8 27 0.0 1.6 0.00 0.00 0.00 62 1015.2
20260502054535 8 26 0.0 1.6 0.00 0.00 0.00 61 1015.2
20260502053040 8 0 0.0 0.0 0.00 0.00 0.00 60 1015.1
20260502051535 9 0 0.0 1.6 0.00 0.00 0.00 58 1015.1